Regional Weather Roundup
Issued by NWS

Home | Current Version | Previous Version | Graphics & Text | Print | Product List | Glossary On
Versions: 1 2 3 4 5 6 7 8 9 10 11 12 13 14 15 16 17 18 19 20 21 22 23 24 25 26 27 28 29 30 31 32 33 34 35 36 37 38 39 40 41 42 43 44 45 46 47 48 49 50
000
ASUS43 KMPX 250110
RWRMN
WEATHER ROUNDUP FOR MINNESOTA
NATIONAL WEATHER SERVICE TWIN CITIES/CHANHASSEN MN
800 PM CDT MON APR 24 2017


NOTE: "FAIR" INDICATES FEW OR NO CLOUDS BELOW 12,000 FEET WITH NO
SIGNIFICANT WEATHER AND/OR OBSTRUCTIONS TO VISIBILITY. N/A MEANS
CURRENT SKY AND/OR WEATHER CONDITIONS ARE NOT AVAILABLE.

MNZ060>063-068>070-250200-
   Twin Cities Metro

CITY           SKY/WX    TMP DP  RH WIND       PRES   REMARKS
TWIN CITIES    CLOUDY    68  31  25 S13       29.56F
ST PAUL        CLOUDY    65  35  33 S12       29.58S
CRYSTAL        CLOUDY    65  32  29 SE9       29.54F
BLAINE         CLOUDY    66  34  30 SE13G22   29.56F
LAKEVILLE      CLOUDY    63  37  39 SE5       29.57F
EDEN PRAIRIE   CLOUDY    67  32  27 S12       29.54F
SOUTH ST PAUL  CLOUDY    67  33  28 S7        29.57F
LAKE ELMO      CLOUDY    66  34  30 S15G22    29.59F
$$
MNZ001>005-007-008-013>017-022>024-027-028-250200-
   Northwest Minnesota

CITY           SKY/WX    TMP DP  RH WIND       PRES   REMARKS
BEMIDJI        LGT RAIN  42  42  99 E7        29.56F
HALLOCK        CLOUDY    34  32  93 N14       29.68S WCI  24
ROSEAU         CLOUDY    34  28  80 NE17      29.67R WCI  23
WARROAD        DRIZZLE   34  28  80 NE20G25   29.68S WCI  22
THIEF RVR FALL CLOUDY    35  34  96 NE18      29.59F WCI  24
CROOKSTON      CLOUDY    37  36  93 NE12G17   29.61S
FOSSTON        CLOUDY    39  39 100 N8        29.56R
DETROIT LAKES  MOCLDY    50  46  87 CALM      29.53F
MOORHEAD       CLOUDY    41  37  87 N18G24    29.56R
PARK RAPIDS    LGT RAIN  50  47  89 E5        29.54S
MAHNOMEN       CLOUDY    46  45  96 E5        29.53S
$$
MNZ006-009>011-018-025>026-250200-
   North Central Minnesota

CITY           SKY/WX    TMP DP  RH WIND       PRES   REMARKS
BAUDETTE       MIX PCPN  34  32  92 NE8       29.64S FOG     WCI  27
FLAG ISLAND    DRIZZLE   30  28  93 NE14G21   29.69F WCI  20
INTL FALLS     LGT RAIN  36  34  92 E16G25    29.67S FOG
WASKISH        RAIN      39  37  93 E13G18    29.61S
BIG FORK       HVY RAIN  39  36  87 E7        29.65R
LONGVILLE      LGT RAIN  45  41  87 N3        29.58R
GRAND RAPIDS   LGT RAIN  41  35  79 E8        29.61F
CRANE LAKE     RAIN      36  34  93 NE5       29.74R
ORR            LGT RAIN  36  30  80 E3        29.66S
COOK           DRIZZLE   39  32  75 E3        29.70R
WALKER         RAIN      43  41  94 E7        29.56F
$$
MNZ012-019>021-037-250200-
   Northeast Minnesota

CITY           SKY/WX    TMP DP  RH WIND       PRES   REMARKS
DULUTH         CLOUDY    36  32  85 E15       29.68R
ELY            CLOUDY    37  28  70 E7        29.68S
HIBBING        CLOUDY    39  31  72 SE9       29.67R
EVELETH        CLOUDY    40  29  65 SE5       29.69R
DULUTH HARBOR  CLOUDY    37  36  93 NE24G31   29.73R
TWO HARBORS    CLOUDY    37  34  87 NE12G21   29.68R
SILVER BAY     CLOUDY    36  32  87 NE15G25   29.70R
GRAND MARAIS     N/A     41  31  67 NE16G26   29.73F
G MARAIS ARPRT CLOUDY    34  27  75 NE15G22   29.72F WCI  24
$$
MNZ029>031-032-039>041-046>048-054>057-064-250200-
   West Central Minnesota

CITY           SKY/WX    TMP DP  RH WIND       PRES   REMARKS
FERGUS FALLS   CLOUDY    52  50  93 NW8       29.50S
WHEATON        CLOUDY    46  43  87 NW10G18   29.55R
MORRIS         CLOUDY    55  48  76 NW13      29.49R
ALEXANDRIA     CLOUDY    59  41  51 SE9       29.50F
ELBOW LAKE     CLOUDY    51  49  90 NE7       29.50S
WADENA         RAIN      50  46  87 E6        29.53R
GLENWOOD       DRIZZLE   57  45  62 SE13      29.51F
APPLETON       CLOUDY    59  46  63 NW13G22   29.49R
BENSON         DRIZZLE   61  39  44 S8        29.50F
ORTONVILLE     CLOUDY    52  45  76 NW12      29.51R
MADISON        CLOUDY    57  48  72 NW13      29.49R
WILLMAR        DRIZZLE   61  43  51 E6        29.51F
$$
MNZ033>034-036-042>043-049>051-058-059-250200-
   Central Minnesota

CITY           SKY/WX    TMP DP  RH WIND       PRES   REMARKS
ST CLOUD       CLOUDY    59  41  51 CALM      29.53F
SAUK CENTRE    LGT RAIN  55  43  64 S13       29.54R
PAYNESVILLE    CLOUDY    60  39  46 E5        29.52F
AITKIN         CLOUDY    45  36  70 E9        29.56F
PINE RIVER     LGT RAIN  50  45  81 NE3       29.59S
BRAINERD       CLOUDY    55  42  61 E5        29.55F
STAPLES        RAIN      50  46  87 N5        29.53S
LONG PRAIRIE   LGT RAIN  55  41  58 SE9       29.54R
LITTLE FALLS   CLOUDY    59  36  41 SE5       29.54S
LITCHFIELD     CLOUDY    61  46  59 E3        29.53F
BUFFALO        CLOUDY    62  37  38 SE3       29.54F
MAPLE LAKE     CLOUDY    60  45  58 CALM      29.54F
HUTCHINSON     CLOUDY    64  40  41 S6        29.54S
$$
MNZ037-044-045-052-053-250200-
   East Central Minnesota

CITY           SKY/WX    TMP DP  RH WIND       PRES   REMARKS
PRINCETON      CLOUDY    61  37  41 E5        29.54F
MORA           CLOUDY    55  37  50 E5        29.58S
CAMBRIDGE      CLOUDY    64  43  45 SE6       29.54F
RUSH CITY      RAIN      62  32  32 SE8       29.57F
MOOSE LAKE     CLOUDY    37  34  87 NE12G18   29.60F
HINCKLEY       CLOUDY    57  41  54 E6        29.58F
CLOQUET        CLOUDY    36  30  80 E7        29.70R
MCGREGOR       CLOUDY    39  36  87 NE6       29.60F
$$
MNZ071>073-080-081-089-090-097-098-250200-
   Southwest Minnesota

CITY           SKY/WX    TMP DP  RH WIND       PRES   REMARKS
MONTEVIDEO     CLOUDY    61  46  59 S6        29.48F
GRANITE FALLS  LGT RAIN  63  48  57 CALM      29.50F
CANBY          CLOUDY    61  48  62 CALM      29.51R
MARSHALL       CLOUDY    63  44  50 MISG      29.48F
REDWOOD FALLS  CLOUDY    63  41  44 S13       29.50F
OLIVIA         CLOUDY    63  37  39 S7        29.50F
PIPESTONE      PTCLDY    61  41  48 NW9       29.51R
WINDOM         RAIN      63  43  48 CALM      29.52F
WORTHINGTON    CLOUDY    62  44  51 S7        29.51F
JACKSON        CLOUDY    63  36  36 CALM      29.52F
TRACY          LGT RAIN  65  43  45 S9        29.50S
SLAYTON        CLOUDY    60  44  56 SE10      29.51S
$$
MNZ065>067-074>077-082>085-091>093-250200-
   South Central Minnesota

CITY           SKY/WX    TMP DP  RH WIND       PRES   REMARKS
MANKATO        CLOUDY    66  31  27 S9        29.55F
NEW ULM        CLOUDY    66  34  30 S9G23     29.52F
ST JAMES       CLOUDY    64  36  34 SE7       29.53F
FAIRMONT       CLOUDY    64  36  35 S9        29.53F
GLENCOE        CLOUDY    67  36  31 S9        29.53F
FARIBAULT      CLOUDY    66  34  30 SE10      29.58F
OWATONNA       CLOUDY    64  30  27 SE8       29.59R
WASECA         CLOUDY    63  32  31 SE12G21   29.58S
ALBERT LEA     CLOUDY    63  28  27 S9        29.58R
$$
MNZ078>079-086>088-094>096-250200-
   Southeast Minnesota

CITY           SKY/WX    TMP DP  RH WIND       PRES   REMARKS
ROCHESTER      CLOUDY    61  33  35 SE12      29.62S
RED WING       MOCLDY    68  27  21 S10       29.60F
STANTON        CLOUDY    66  31  27 S9        29.57F
DODGE CENTER   CLOUDY    63  30  29 SE8       29.60S
WINONA         CLOUDY    66  34  30 SE6       29.63R
AUSTIN         MOCLDY    63  30  29 S7        29.59S
PRESTON        MOCLDY    64  29  27 SE12      29.62F
$$
ABBREVIATIONS USED IN REMARKS
   TC - TEMPERATURES IN CELSIUS
  WCI - WIND CHILL INDEX
   HX - HEAT INDEX
  VSB - VISIBILITY
$$



USA.gov is the U.S. government's official web portal to all federal, state and local government web resources and services.